Location: ??????
(42.0089°N, 44.3281°E)
Time: 16:56:16
(UTC+00:00)

USA 267 - Pass Details

Date: 01 June 2022
Orbit: 1101 x 1106 km, 123.0° (Epoch: 28 June)

Event Time Altitude Azimuth Distance (km) Brightness Sun altitude
Rises 19:48:49 0° 82° (E) 3,917 6.1 -23.7°
Reaches altitude 10° 19:51:38 10° 72° (ENE) 2,960 5.5 -23.9°
Maximum altitude 19:57:01 29° 16° (NNE) 1,919 5.0 -24.2°
Drops below altitude 10° 20:02:25 10° 320° (NW) 2,966 6.4 -24.5°
Sets 20:05:14 0° 310° (NW) 3,925 7.0 -24.6°
